Location: Mountain Grove
(34.0887°N, 86.6172°W)
Time: 00:14:35
(UTC+00:00)

ATLAS CENTAUR R/B - Pass Details

Date: 14 July 2020
Orbit: 475 x 672 km, 64.7° (Epoch: 13 July)

Event Time Altitude Azimuth Distance (km) Brightness Sun altitude
Rises 01:23:18 0° 343° (NNW) 2,538 5.5 -5.2°
Reaches altitude 10° 01:25:42 10° 357° (N) 1,647 4.3 -5.6°
Maximum altitude 01:28:47 25° 55° (NE) 984 2.4 -6.2°
Drops below altitude 10° 01:31:52 10° 113° (ESE) 1,646 3.1 -6.7°
Enters shadow 01:32:12 - 116° (ESE) 1,761 3.2 -6.8°
